Time,TemperatureF,DewpointF,PressureIn,WindDirection,WindDirectionDegrees,WindSpeedMPH,WindSpeedGustMPH,Humidity,HourlyPrecipIn,Conditions,Clouds,dailyrainin,SoftwareType,DateUTC
2013-06-10 00:02:00,81.1,7.9,-100.00,SSW,205,3.0,16.0,6,0.00,,,0.00,meteohub,2013-06-10 07:02:00,
2013-06-10 00:07:00,81.1,7.9,-100.00,SW,218,19.0,19.0,6,0.00,,,0.00,meteohub,2013-06-10 07:07:00,
2013-06-10 00:12:00,81.1,7.9,-100.00,WSW,246,22.0,22.0,6,0.00,,,0.00,meteohub,2013-06-10 07:12:00,
2013-06-10 00:17:00,81.1,7.9,-100.00,SW,225,12.0,24.0,6,0.00,,,0.00,meteohub,2013-06-10 07:17:00,
2013-06-10 00:22:00,81.1,7.9,-100.00,SW,232,19.0,24.0,6,0.00,,,0.00,meteohub,2013-06-10 07:22:00,
2013-06-10 00:27:00,81.0,7.7,-100.00,SW,216,17.0,25.0,6,0.00,,,0.00,meteohub,2013-06-10 07:27:00,
2013-06-10 00:32:00,80.8,10.9,-100.00,SW,215,11.0,25.0,7,0.00,,,0.00,meteohub,2013-06-10 07:32:00,
2013-06-10 00:37:00,80.8,7.5,-100.00,SW,224,11.0,25.0,6,0.00,,,0.00,meteohub,2013-06-10 07:37:00,
2013-06-10 00:42:00,80.4,10.8,-100.00,SSW,211,14.0,22.0,7,0.00,,,0.00,meteohub,2013-06-10 07:42:00,
2013-06-10 00:47:00,80.2,10.6,-100.00,SSW,199,7.0,20.0,7,0.00,,,0.00,meteohub,2013-06-10 07:47:00,
2013-06-10 00:52:00,80.1,10.4,-100.00,SSW,210,11.0,20.0,7,0.00,,,0.00,meteohub,2013-06-10 07:52:00,
2013-06-10 00:57:00,79.5,10.0,-100.00,SW,218,6.0,20.0,7,0.00,,,0.00,meteohub,2013-06-10 07:57:00,
2013-06-10 01:02:00,79.2,9.9,-100.00,South,190,6.0,14.0,7,0.00,,,0.00,meteohub,2013-06-10 08:02:00,
2013-06-10 01:07:00,79.2,9.9,-100.00,SW,222,14.0,14.0,7,0.00,,,0.00,meteohub,2013-06-10 08:07:00,
2013-06-10 01:12:00,79.3,12.9,-100.00,SSW,211,7.0,15.0,8,0.00,,,0.00,meteohub,2013-06-10 08:12:00,
2013-06-10 01:17:00,79.3,9.9,-100.00,South,175,8.0,15.0,7,0.00,,,0.00,meteohub,2013-06-10 08:17:00,
2013-06-10 01:22:00,79.2,9.9,-100.00,SSW,205,9.0,15.0,7,0.00,,,0.00,meteohub,2013-06-10 08:22:00,
2013-06-10 01:27:00,79.0,12.6,-100.00,SW,221,5.0,15.0,8,0.00,,,0.00,meteohub,2013-06-10 08:27:00,
2013-06-10 01:32:00,78.8,12.6,-100.00,South,172,6.0,15.0,8,0.00,,,0.00,meteohub,2013-06-10 08:32:00,
2013-06-10 01:37:00,78.8,12.6,-100.00,SSW,195,9.0,15.0,8,0.00,,,0.00,meteohub,2013-06-10 08:37:00,
2013-06-10 01:42:00,78.8,12.6,-100.00,SSW,200,11.0,16.0,8,0.00,,,0.00,meteohub,2013-06-10 08:42:00,
2013-06-10 01:47:00,78.6,12.4,-100.00,SSW,209,8.0,18.0,8,0.00,,,0.00,meteohub,2013-06-10 08:47:00,
2013-06-10 01:52:00,78.6,12.4,-100.00,SSW,198,6.0,18.0,8,0.00,,,0.00,meteohub,2013-06-10 08:52:00,
2013-06-10 01:57:00,78.6,12.4,-100.00,South,178,6.0,16.0,8,0.00,,,0.00,meteohub,2013-06-10 08:57:00,
2013-06-10 02:02:00,78.3,12.2,-100.00,South,191,0.0,16.0,8,0.00,,,0.00,meteohub,2013-06-10 09:02:00,
2013-06-10 02:07:00,77.0,13.8,-100.00,SE,126,3.0,15.0,9,0.00,,,0.00,meteohub,2013-06-10 09:07:00,
2013-06-10 02:12:00,76.5,13.5,-100.00,ESE,112,4.0,9.0,9,0.00,,,0.00,meteohub,2013-06-10 09:12:00,
2013-06-10 02:17:00,76.5,13.5,-100.00,ESE,111,3.0,7.0,9,0.00,,,0.00,meteohub,2013-06-10 09:17:00,
2013-06-10 02:22:00,76.5,13.5,-100.00,ESE,115,4.0,8.0,9,0.00,,,0.00,meteohub,2013-06-10 09:22:00,
2013-06-10 02:27:00,76.3,13.3,-100.00,SE,135,1.0,8.0,9,0.00,,,0.00,meteohub,2013-06-10 09:27:00,
2013-06-10 02:32:00,76.3,13.3,-100.00,ESE,115,3.0,8.0,9,0.00,,,0.00,meteohub,2013-06-10 09:32:00,
2013-06-10 02:37:00,76.3,13.3,-100.00,SE,132,6.0,8.0,9,0.00,,,0.00,meteohub,2013-06-10 09:37:00,
2013-06-10 02:42:00,76.5,13.5,-100.00,South,173,7.0,9.0,9,0.00,,,0.00,meteohub,2013-06-10 09:42:00,
2013-06-10 02:47:00,76.6,13.6,-100.00,South,169,5.0,9.0,9,0.00,,,0.00,meteohub,2013-06-10 09:47:00,
2013-06-10 02:52:00,76.5,15.8,-100.00,SSE,153,9.0,9.0,10,0.00,,,0.00,meteohub,2013-06-10 09:52:00,
2013-06-10 02:57:00,76.3,13.3,-100.00,South,175,10.0,10.0,9,0.00,,,0.00,meteohub,2013-06-10 09:57:00,
2013-06-10 03:02:00,76.6,13.6,-100.00,South,184,13.0,13.0,9,0.00,,,0.00,meteohub,2013-06-10 10:02:00,
2013-06-10 03:07:00,77.2,16.3,-100.00,South,188,8.0,15.0,10,0.00,,,0.00,meteohub,2013-06-10 10:07:00,
2013-06-10 03:12:00,77.2,16.3,-100.00,SSW,198,3.0,16.0,10,0.00,,,0.00,meteohub,2013-06-10 10:12:00,
2013-06-10 03:17:00,77.4,14.2,-100.00,SW,229,2.0,16.0,9,0.00,,,0.00,meteohub,2013-06-10 10:17:00,
2013-06-10 03:22:00,76.8,16.2,-100.00,SW,227,4.0,17.0,10,0.00,,,0.00,meteohub,2013-06-10 10:22:00,
2013-06-10 03:27:00,76.8,16.2,-100.00,SSW,205,6.0,17.0,10,0.00,,,0.00,meteohub,2013-06-10 10:27:00,
2013-06-10 03:32:00,76.5,15.8,-100.00,SSW,201,4.0,17.0,10,0.00,,,0.00,meteohub,2013-06-10 10:32:00,
2013-06-10 03:37:00,75.9,17.6,-100.00,SW,214,2.0,13.0,11,0.00,,,0.00,meteohub,2013-06-10 10:37:00,
2013-06-10 03:42:00,75.0,16.9,-100.00,SSW,207,2.0,10.0,11,0.00,,,0.00,meteohub,2013-06-10 10:42:00,
2013-06-10 03:47:00,74.5,18.5,-100.00,SW,217,0.0,9.0,12,0.00,,,0.00,meteohub,2013-06-10 10:47:00,
2013-06-10 03:53:00,73.6,19.8,-100.00,NW,325,5.0,6.0,13,0.00,,,0.00,meteohub,2013-06-10 10:53:00,
2013-06-10 03:58:00,72.9,19.2,-100.00,NNW,327,4.0,7.0,13,0.00,,,0.00,meteohub,2013-06-10 10:58:00,
2013-06-10 04:03:00,72.3,18.7,-100.00,NW,325,6.0,9.0,13,0.00,,,0.00,meteohub,2013-06-10 11:03:00,
2013-06-10 04:08:00,72.0,20.1,-100.00,WNW,294,4.0,9.0,14,0.00,,,0.00,meteohub,2013-06-10 11:08:00,
2013-06-10 04:13:00,72.0,18.5,-100.00,NW,315,5.0,8.0,13,0.00,,,0.00,meteohub,2013-06-10 11:13:00,
2013-06-10 04:18:00,71.2,19.6,-100.00,West,270,3.0,8.0,14,0.00,,,0.00,meteohub,2013-06-10 11:18:00,
2013-06-10 04:23:00,70.5,20.7,-100.00,West,265,0.0,7.0,15,0.00,,,0.00,meteohub,2013-06-10 11:23:00,
2013-06-10 04:28:00,71.6,18.1,-100.00,West,265,0.0,6.0,13,0.00,,,0.00,meteohub,2013-06-10 11:28:00,
2013-06-10 04:33:00,72.3,18.7,-100.00,WSW,242,2.0,5.0,13,0.00,,,0.00,meteohub,2013-06-10 11:33:00,
2013-06-10 04:38:00,72.3,18.7,-100.00,SW,223,4.0,6.0,13,0.00,,,0.00,meteohub,2013-06-10 11:38:00,
2013-06-10 04:43:00,72.3,18.7,-100.00,NW,323,1.0,8.0,13,0.00,,,0.00,meteohub,2013-06-10 11:43:00,
2013-06-10 04:48:00,71.2,19.6,-100.00,North,5,5.0,8.0,14,0.00,,,0.00,meteohub,2013-06-10 11:48:00,
2013-06-10 04:53:00,71.1,19.4,-100.00,NE,36,4.0,7.0,14,0.00,,,0.00,meteohub,2013-06-10 11:53:00,
2013-06-10 04:58:00,70.5,20.7,-100.00,ENE,65,5.0,7.0,15,0.00,,,0.00,meteohub,2013-06-10 11:58:00,
2013-06-10 05:03:00,71.6,18.1,-100.00,East,89,1.0,7.0,13,0.00,,,0.00,meteohub,2013-06-10 12:03:00,
2013-06-10 05:08:00,70.9,19.2,-100.00,WNW,291,2.0,7.0,14,0.00,,,0.00,meteohub,2013-06-10 12:08:00,
2013-06-10 05:13:00,71.2,19.6,-100.00,NW,309,2.0,7.0,14,0.00,,,0.00,meteohub,2013-06-10 12:13:00,
2013-06-10 05:18:00,71.4,18.0,-100.00,WNW,285,2.0,6.0,13,0.00,,,0.00,meteohub,2013-06-10 12:18:00,
2013-06-10 05:23:00,71.2,19.6,-100.00,WSW,257,4.0,5.0,14,0.00,,,0.00,meteohub,2013-06-10 12:23:00,
2013-06-10 05:28:00,70.5,17.2,-100.00,SW,217,6.0,6.0,13,0.00,,,0.00,meteohub,2013-06-10 12:28:00,
2013-06-10 05:33:00,71.1,17.8,-100.00,SSW,194,5.0,7.0,13,0.00,,,0.00,meteohub,2013-06-10 12:33:00,
2013-06-10 05:38:00,70.9,17.6,-100.00,SSW,193,2.0,7.0,13,0.00,,,0.00,meteohub,2013-06-10 12:38:00,
2013-06-10 05:43:00,71.2,17.8,-100.00,South,186,5.0,7.0,13,0.00,,,0.00,meteohub,2013-06-10 12:43:00,
2013-06-10 05:48:00,71.4,16.2,-100.00,SSW,213,4.0,7.0,12,0.00,,,0.00,meteohub,2013-06-10 12:48:00,
2013-06-10 05:53:00,70.9,15.8,-100.00,SW,226,1.0,9.0,12,0.00,,,0.00,meteohub,2013-06-10 12:53:00,
2013-06-10 05:58:00,71.4,14.2,-100.00,NW,307,7.0,9.0,11,0.00,,,0.00,meteohub,2013-06-10 12:58:00,
2013-06-10 06:03:00,70.5,15.4,-100.00,WNW,297,6.0,9.0,12,0.00,,,0.00,meteohub,2013-06-10 13:03:00,
2013-06-10 06:08:00,69.4,16.5,-100.00,WNW,285,4.0,9.0,13,0.00,,,0.00,meteohub,2013-06-10 13:08:00,
2013-06-10 06:13:00,70.2,15.1,-100.00,SW,227,6.0,9.0,12,0.00,,,0.00,meteohub,2013-06-10 13:13:00,
2013-06-10 06:18:00,71.8,14.4,-100.00,SSW,194,7.0,11.0,11,0.00,,,0.00,meteohub,2013-06-10 13:18:00,
2013-06-10 06:23:00,73.8,11.5,-100.00,SSW,213,8.0,16.0,9,0.00,,,0.00,meteohub,2013-06-10 13:23:00,
2013-06-10 06:28:00,74.1,11.7,-100.00,SW,214,11.0,17.0,9,0.00,,,0.00,meteohub,2013-06-10 13:28:00,
2013-06-10 06:33:00,74.8,12.2,-100.00,SSW,213,9.0,17.0,9,0.00,,,0.00,meteohub,2013-06-10 13:33:00,
2013-06-10 06:38:00,75.7,10.2,-100.00,SSW,194,7.0,18.0,8,0.00,,,0.00,meteohub,2013-06-10 13:38:00,
2013-06-10 06:43:00,76.8,11.1,-100.00,South,188,17.0,18.0,8,0.00,,,0.00,meteohub,2013-06-10 13:43:00,
2013-06-10 06:48:00,76.8,11.1,-100.00,SSW,204,7.0,18.0,8,0.00,,,0.00,meteohub,2013-06-10 13:48:00,
2013-06-10 06:53:00,76.3,13.3,-100.00,SW,214,3.0,17.0,9,0.00,,,0.00,meteohub,2013-06-10 13:53:00,
2013-06-10 06:58:00,75.9,13.1,-100.00,SW,219,11.0,17.0,9,0.00,,,0.00,meteohub,2013-06-10 13:58:00,
2013-06-10 07:03:00,75.7,12.9,-100.00,SSW,209,3.0,15.0,9,0.00,,,0.00,meteohub,2013-06-10 14:03:00,
2013-06-10 07:08:00,75.9,15.4,-100.00,SW,231,9.0,15.0,10,0.00,,,0.00,meteohub,2013-06-10 14:08:00,
2013-06-10 07:13:00,76.3,13.3,-100.00,SSW,213,7.0,15.0,9,0.00,,,0.00,meteohub,2013-06-10 14:13:00,
2013-06-10 07:18:00,76.6,13.6,-100.00,SW,217,10.0,13.0,9,0.00,,,0.00,meteohub,2013-06-10 14:18:00,
2013-06-10 07:23:00,76.5,15.8,-100.00,SSW,195,9.0,15.0,10,0.00,,,0.00,meteohub,2013-06-10 14:23:00,
2013-06-10 07:28:00,76.6,13.6,-100.00,SSW,203,4.0,15.0,9,0.00,,,0.00,meteohub,2013-06-10 14:28:00,
2013-06-10 07:33:00,77.5,16.7,-100.00,WSW,238,6.0,15.0,10,0.00,,,0.00,meteohub,2013-06-10 14:33:00,
2013-06-10 07:38:00,77.9,14.5,-100.00,SW,225,3.0,12.0,9,0.00,,,0.00,meteohub,2013-06-10 14:38:00,
2013-06-10 07:43:00,78.1,17.1,-100.00,SW,219,3.0,10.0,10,0.00,,,0.00,meteohub,2013-06-10 14:43:00,
2013-06-10 07:48:00,78.1,17.1,-100.00,SSW,208,10.0,13.0,10,0.00,,,0.00,meteohub,2013-06-10 14:48:00,
2013-06-10 07:53:00,78.3,19.4,-100.00,SW,232,9.0,14.0,11,0.00,,,0.00,meteohub,2013-06-10 14:53:00,
2013-06-10 07:58:00,78.3,19.4,-100.00,WSW,242,13.0,14.0,11,0.00,,,0.00,meteohub,2013-06-10 14:58:00,
2013-06-10 08:03:00,77.9,19.2,-100.00,WSW,254,7.0,16.0,11,0.00,,,0.00,meteohub,2013-06-10 15:03:00,
2013-06-10 08:08:00,78.1,21.4,-100.00,SSW,207,7.0,19.0,12,0.00,,,0.00,meteohub,2013-06-10 15:08:00,
2013-06-10 08:13:00,78.4,19.6,-100.00,SW,222,6.0,19.0,11,0.00,,,0.00,meteohub,2013-06-10 15:13:00,
2013-06-10 08:18:00,78.6,19.8,-100.00,SW,232,10.0,16.0,11,0.00,,,0.00,meteohub,2013-06-10 15:18:00,
2013-06-10 08:23:00,78.8,21.9,-100.00,SSW,212,4.0,13.0,12,0.00,,,0.00,meteohub,2013-06-10 15:23:00,
2013-06-10 08:28:00,79.3,20.3,-100.00,SW,219,9.0,15.0,11,0.00,,,0.00,meteohub,2013-06-10 15:28:00,
2013-06-10 08:33:00,79.2,20.1,-100.00,SW,227,7.0,15.0,11,0.00,,,0.00,meteohub,2013-06-10 15:33:00,
2013-06-10 08:38:00,79.5,20.5,-100.00,West,266,7.0,15.0,11,0.00,,,0.00,meteohub,2013-06-10 15:38:00,
2013-06-10 08:43:00,79.2,22.1,-100.00,SW,230,10.0,15.0,12,0.00,,,0.00,meteohub,2013-06-10 15:43:00,
2013-06-10 08:48:00,79.5,20.5,-100.00,SW,220,8.0,15.0,11,0.00,,,0.00,meteohub,2013-06-10 15:48:00,
2013-06-10 08:53:00,80.2,21.0,-100.00,South,186,9.0,15.0,11,0.00,,,0.00,meteohub,2013-06-10 15:53:00,
2013-06-10 08:58:00,80.2,21.0,-100.00,SSW,201,8.0,15.0,11,0.00,,,0.00,meteohub,2013-06-10 15:58:00,
2013-06-10 09:03:00,80.8,21.4,-100.00,SW,221,6.0,17.0,11,0.00,,,0.00,meteohub,2013-06-10 16:03:00,
2013-06-10 09:08:00,80.8,21.4,-100.00,SSW,208,3.0,17.0,11,0.00,,,0.00,meteohub,2013-06-10 16:08:00,
2013-06-10 09:13:00,80.8,23.4,-100.00,SSE,159,13.0,19.0,12,0.00,,,0.00,meteohub,2013-06-10 16:13:00,
2013-06-10 09:18:00,80.8,23.4,-100.00,SW,228,8.0,23.0,12,0.00,,,0.00,meteohub,2013-06-10 16:18:00,
2013-06-10 09:23:00,80.8,21.4,-100.00,South,190,22.0,23.0,11,0.00,,,0.00,meteohub,2013-06-10 16:23:00,
2013-06-10 09:28:00,81.0,23.5,-100.00,SW,229,12.0,23.0,12,0.00,,,0.00,meteohub,2013-06-10 16:28:00,
2013-06-10 09:33:00,81.0,23.5,-100.00,SSW,196,18.0,25.0,12,0.00,,,0.00,meteohub,2013-06-10 16:33:00,
2013-06-10 09:38:00,81.0,23.5,-100.00,SSW,202,15.0,25.0,12,0.00,,,0.00,meteohub,2013-06-10 16:38:00,
2013-06-10 09:43:00,80.8,23.4,-100.00,SSW,197,24.0,25.0,12,0.00,,,0.00,meteohub,2013-06-10 16:43:00,
2013-06-10 09:48:00,81.3,23.9,-100.00,SW,218,18.0,25.0,12,0.00,,,0.00,meteohub,2013-06-10 16:48:00,
2013-06-10 09:53:00,81.9,22.3,-100.00,South,184,10.0,25.0,11,0.00,,,0.00,meteohub,2013-06-10 16:53:00,
2013-06-10 09:58:00,81.5,21.9,-100.00,SSW,192,14.0,25.0,11,0.00,,,0.00,meteohub,2013-06-10 16:58:00,
2013-06-10 10:03:00,81.9,26.2,-100.00,SSW,210,11.0,23.0,13,0.00,,,0.00,meteohub,2013-06-10 17:03:00,
2013-06-10 10:08:00,81.9,26.2,-100.00,SSW,205,17.0,23.0,13,0.00,,,0.00,meteohub,2013-06-10 17:08:00,
2013-06-10 10:13:00,82.2,24.6,-100.00,SSW,200,18.0,22.0,12,0.00,,,0.00,meteohub,2013-06-10 17:13:00,
2013-06-10 10:18:00,82.0,26.4,-100.00,SSW,210,7.0,22.0,13,0.00,,,0.00,meteohub,2013-06-10 17:18:00,
2013-06-10 10:23:00,82.8,27.0,-100.00,SSE,168,12.0,26.0,13,0.00,,,0.00,meteohub,2013-06-10 17:23:00,
2013-06-10 10:28:00,82.6,26.8,-100.00,SSW,193,16.0,26.0,13,0.00,,,0.00,meteohub,2013-06-10 17:28:00,
2013-06-10 10:33:00,83.1,25.3,-100.00,South,185,24.0,26.0,12,0.00,,,0.00,meteohub,2013-06-10 17:33:00,
2013-06-10 10:38:00,82.6,24.8,-100.00,SSW,194,19.0,26.0,12,0.00,,,0.00,meteohub,2013-06-10 17:38:00,
2013-06-10 10:43:00,82.8,25.0,-100.00,SSW,207,15.0,25.0,12,0.00,,,0.00,meteohub,2013-06-10 17:43:00,
2013-06-10 10:48:00,83.3,21.0,-100.00,SSW,205,7.0,26.0,10,0.00,,,0.00,meteohub,2013-06-10 17:48:00,
2013-06-10 10:53:00,83.7,21.4,-100.00,SW,225,10.0,27.0,10,0.00,,,0.00,meteohub,2013-06-10 17:53:00,
2013-06-10 10:58:00,83.5,27.5,-100.00,SSW,200,17.0,27.0,13,0.00,,,0.00,meteohub,2013-06-10 17:58:00,
2013-06-10 11:03:00,83.7,27.7,-100.00,South,181,13.0,30.0,13,0.00,,,0.00,meteohub,2013-06-10 18:03:00,
2013-06-10 11:08:00,84.6,28.4,-100.00,SW,216,22.0,30.0,13,0.00,,,0.00,meteohub,2013-06-10 18:08:00,
2013-06-10 11:13:00,84.2,26.1,-100.00,SSW,192,18.0,29.0,12,0.00,,,0.00,meteohub,2013-06-10 18:13:00,
2013-06-10 11:18:00,84.4,26.2,-100.00,SSW,203,19.0,36.0,12,0.00,,,0.00,meteohub,2013-06-10 18:18:00,
2013-06-10 11:23:00,83.8,25.9,-100.00,SSW,200,21.0,36.0,12,0.00,,,0.00,meteohub,2013-06-10 18:23:00,
2013-06-10 11:28:00,83.7,27.7,-100.00,South,176,22.0,36.0,13,0.00,,,0.00,meteohub,2013-06-10 18:28:00,
2013-06-10 11:33:00,84.4,28.2,-100.00,South,177,27.0,36.0,13,0.00,,,0.00,meteohub,2013-06-10 18:33:00,
2013-06-10 11:38:00,83.8,27.7,-100.00,SSW,193,16.0,36.0,13,0.00,,,0.00,meteohub,2013-06-10 18:38:00,
2013-06-10 11:43:00,84.4,30.0,-100.00,SSW,195,16.0,36.0,14,0.00,,,0.00,meteohub,2013-06-10 18:43:00,
2013-06-10 11:48:00,84.2,28.0,-100.00,SSW,212,20.0,30.0,13,0.00,,,0.00,meteohub,2013-06-10 18:48:00,
2013-06-10 11:53:00,84.7,28.4,-100.00,South,180,21.0,32.0,13,0.00,,,0.00,meteohub,2013-06-10 18:53:00,
2013-06-10 11:58:00,85.1,28.8,-100.00,South,187,29.0,32.0,13,0.00,,,0.00,meteohub,2013-06-10 18:58:00,
2013-06-10 12:03:00,85.1,28.8,-100.00,SSE,158,18.0,32.0,13,0.00,,,0.00,meteohub,2013-06-10 19:03:00,
2013-06-10 12:08:00,85.8,29.3,-100.00,South,173,28.0,31.0,13,0.00,,,0.00,meteohub,2013-06-10 19:08:00,
2013-06-10 12:13:00,85.8,29.3,-100.00,SW,215,21.0,31.0,13,0.00,,,0.00,meteohub,2013-06-10 19:13:00,
2013-06-10 12:18:00,85.3,27.0,-100.00,SSW,198,19.0,30.0,12,0.00,,,0.00,meteohub,2013-06-10 19:18:00,
2013-06-10 12:23:00,86.4,27.7,-100.00,SSW,212,16.0,30.0,12,0.00,,,0.00,meteohub,2013-06-10 19:23:00,
2013-06-10 12:28:00,86.4,25.7,-100.00,SW,221,18.0,32.0,11,0.00,,,0.00,meteohub,2013-06-10 19:28:00,
2013-06-10 12:33:00,85.5,27.1,-100.00,South,180,25.0,32.0,12,0.00,,,0.00,meteohub,2013-06-10 19:33:00,
2013-06-10 12:38:00,85.8,27.3,-100.00,South,172,21.0,33.0,12,0.00,,,0.00,meteohub,2013-06-10 19:38:00,
2013-06-10 12:43:00,86.4,27.7,-100.00,SW,219,13.0,35.0,12,0.00,,,0.00,meteohub,2013-06-10 19:43:00,
2013-06-10 12:48:00,86.7,25.9,-100.00,SW,223,22.0,35.0,11,0.00,,,0.00,meteohub,2013-06-10 19:48:00,
2013-06-10 12:53:00,86.5,27.9,-100.00,SW,217,19.0,31.0,12,0.00,,,0.00,meteohub,2013-06-10 19:53:00,
2013-06-10 12:58:00,86.7,28.0,-100.00,South,184,7.0,30.0,12,0.00,,,0.00,meteohub,2013-06-10 19:58:00,
2013-06-10 13:03:00,87.6,28.8,-100.00,SSW,209,16.0,30.0,12,0.00,,,0.00,meteohub,2013-06-10 20:03:00,
2013-06-10 13:08:00,88.2,27.0,-100.00,SSW,196,26.0,27.0,11,0.00,,,0.00,meteohub,2013-06-10 20:08:00,
2013-06-10 13:13:00,87.8,28.9,-100.00,SSW,205,12.0,26.0,12,0.00,,,0.00,meteohub,2013-06-10 20:13:00,
2013-06-10 13:18:00,87.6,26.6,-100.00,SSW,205,19.0,26.0,11,0.00,,,0.00,meteohub,2013-06-10 20:18:00,
2013-06-10 13:23:00,88.0,27.0,-100.00,South,184,22.0,27.0,11,0.00,,,0.00,meteohub,2013-06-10 20:23:00,
2013-06-10 13:28:00,87.6,28.8,-100.00,SSW,209,6.0,28.0,12,0.00,,,0.00,meteohub,2013-06-10 20:28:00,
2013-06-10 13:33:00,87.8,28.9,-100.00,South,178,11.0,34.0,12,0.00,,,0.00,meteohub,2013-06-10 20:33:00,
2013-06-10 13:38:00,88.5,31.5,-100.00,SSW,195,21.0,34.0,13,0.00,,,0.00,meteohub,2013-06-10 20:38:00,
2013-06-10 13:43:00,88.2,31.1,-100.00,SW,215,20.0,34.0,13,0.00,,,0.00,meteohub,2013-06-10 20:43:00,
2013-06-10 13:48:00,88.9,29.7,-100.00,SSW,210,6.0,27.0,12,0.00,,,0.00,meteohub,2013-06-10 20:48:00,
2013-06-10 13:53:00,89.6,30.2,-100.00,SSW,205,25.0,29.0,12,0.00,,,0.00,meteohub,2013-06-10 20:53:00,
2013-06-10 13:58:00,88.9,31.6,-100.00,SSW,212,11.0,33.0,13,0.00,,,0.00,meteohub,2013-06-10 20:58:00,
2013-06-10 14:03:00,89.6,32.2,-100.00,SW,218,13.0,33.0,13,0.00,,,0.00,meteohub,2013-06-10 21:03:00,
2013-06-10 14:08:00,89.6,23.4,-100.00,WSW,254,16.0,34.0,9,0.00,,,0.00,meteohub,2013-06-10 21:08:00,
2013-06-10 14:13:00,89.4,23.2,-100.00,SW,223,21.0,34.0,9,0.00,,,0.00,meteohub,2013-06-10 21:13:00,
2013-06-10 14:18:00,90.0,17.6,-100.00,WSW,244,24.0,34.0,7,0.00,,,0.00,meteohub,2013-06-10 21:18:00,
2013-06-10 14:23:00,89.4,17.2,-100.00,WSW,253,20.0,37.0,7,0.00,,,0.00,meteohub,2013-06-10 21:23:00,
2013-06-10 14:28:00,89.4,20.3,-100.00,WSW,240,21.0,37.0,8,0.00,,,0.00,meteohub,2013-06-10 21:28:00,
2013-06-10 14:33:00,89.4,13.8,-100.00,WSW,255,26.0,38.0,6,0.00,,,0.00,meteohub,2013-06-10 21:33:00,
2013-06-10 14:38:00,89.6,4.8,-100.00,West,267,17.0,38.0,4,0.00,,,0.00,meteohub,2013-06-10 21:38:00,
2013-06-10 14:43:00,89.8,-1.3,-100.00,SSW,200,16.0,38.0,3,0.00,,,0.00,meteohub,2013-06-10 21:43:00,
2013-06-10 14:48:00,90.0,5.0,-100.00,SSW,207,14.0,37.0,4,0.00,,,0.00,meteohub,2013-06-10 21:48:00,
2013-06-10 14:53:00,90.0,14.2,-100.00,SW,234,8.0,35.0,6,0.00,,,0.00,meteohub,2013-06-10 21:53:00,
2013-06-10 14:58:00,90.1,5.2,-100.00,SSW,200,15.0,35.0,4,0.00,,,0.00,meteohub,2013-06-10 21:58:00,
2013-06-10 15:03:00,90.3,10.2,-100.00,SW,221,21.0,34.0,5,0.00,,,0.00,meteohub,2013-06-10 22:03:00,
2013-06-10 15:08:00,90.1,10.2,-100.00,SW,215,13.0,34.0,5,0.00,,,0.00,meteohub,2013-06-10 22:08:00,
2013-06-10 15:13:00,90.1,5.2,-100.00,SW,236,22.0,32.0,4,0.00,,,0.00,meteohub,2013-06-10 22:13:00,
2013-06-10 15:18:00,90.1,10.2,-100.00,SW,223,22.0,32.0,5,0.00,,,0.00,meteohub,2013-06-10 22:18:00,
2013-06-10 15:23:00,90.0,14.2,-100.00,SW,217,21.0,32.0,6,0.00,,,0.00,meteohub,2013-06-10 22:23:00,
2013-06-10 15:28:00,90.7,14.7,-100.00,WSW,246,24.0,32.0,6,0.00,,,0.00,meteohub,2013-06-10 22:28:00,
2013-06-10 15:33:00,90.3,18.0,-100.00,SSW,213,20.0,32.0,7,0.00,,,0.00,meteohub,2013-06-10 22:33:00,
2013-06-10 15:38:00,90.1,17.8,-100.00,WSW,241,24.0,32.0,7,0.00,,,0.00,meteohub,2013-06-10 22:38:00,
2013-06-10 15:43:00,90.3,21.0,-100.00,West,275,25.0,31.0,8,0.00,,,0.00,meteohub,2013-06-10 22:43:00,
2013-06-10 15:48:00,89.4,23.2,-100.00,West,277,19.0,31.0,9,0.00,,,0.00,meteohub,2013-06-10 22:48:00,
2013-06-10 15:53:00,89.2,23.0,-100.00,WNW,282,24.0,32.0,9,0.00,,,0.00,meteohub,2013-06-10 22:53:00,
2013-06-10 15:58:00,89.1,22.8,-100.00,West,271,27.0,34.0,9,0.00,,,0.00,meteohub,2013-06-10 22:58:00,
2013-06-10 16:03:00,88.9,25.3,-100.00,West,278,31.0,34.0,10,0.00,,,0.00,meteohub,2013-06-10 23:03:00,
2013-06-10 16:08:00,88.9,22.8,-100.00,WSW,255,22.0,34.0,9,0.00,,,0.00,meteohub,2013-06-10 23:08:00,
2013-06-10 16:13:00,89.2,25.5,-100.00,WSW,254,31.0,34.0,10,0.00,,,0.00,meteohub,2013-06-10 23:13:00,
2013-06-10 16:18:00,88.9,13.3,-100.00,SW,223,10.0,35.0,6,0.00,,,0.00,meteohub,2013-06-10 23:18:00,
2013-06-10 16:23:00,89.4,9.7,-100.00,SW,234,30.0,35.0,5,0.00,,,0.00,meteohub,2013-06-10 23:23:00,
2013-06-10 16:28:00,89.2,17.1,-100.00,WSW,246,13.0,35.0,7,0.00,,,0.00,meteohub,2013-06-10 23:28:00,
2013-06-10 16:33:00,89.2,13.6,-100.00,SW,232,24.0,32.0,6,0.00,,,0.00,meteohub,2013-06-10 23:33:00,
2013-06-10 16:38:00,89.1,20.1,-100.00,WSW,246,21.0,32.0,8,0.00,,,0.00,meteohub,2013-06-10 23:38:00,
2013-06-10 16:43:00,89.4,25.7,-100.00,West,259,27.0,33.0,10,0.00,,,0.00,meteohub,2013-06-10 23:43:00,
2013-06-10 16:48:00,88.9,29.7,-100.00,WSW,237,17.0,33.0,12,0.00,,,0.00,meteohub,2013-06-10 23:48:00,
2013-06-10 16:53:00,88.7,33.4,-100.00,West,262,21.0,33.0,14,0.00,,,0.00,meteohub,2013-06-10 23:53:00,
2013-06-10 16:58:00,88.5,33.3,-100.00,SW,219,9.0,33.0,14,0.00,,,0.00,meteohub,2013-06-10 23:58:00,
2013-06-10 17:03:00,89.1,33.6,-100.00,West,275,22.0,32.0,14,0.00,,,0.00,meteohub,2013-06-11 00:03:00,
2013-06-10 17:08:00,88.7,31.5,-100.00,WSW,252,26.0,32.0,13,0.00,,,0.00,meteohub,2013-06-11 00:08:00,
2013-06-10 17:13:00,88.9,31.6,-100.00,SW,217,23.0,32.0,13,0.00,,,0.00,meteohub,2013-06-11 00:13:00,
2013-06-10 17:18:00,88.3,29.3,-100.00,SW,227,26.0,36.0,12,0.00,,,0.00,meteohub,2013-06-11 00:18:00,
2013-06-10 17:23:00,88.3,31.3,-100.00,WSW,252,25.0,36.0,13,0.00,,,0.00,meteohub,2013-06-11 00:23:00,
2013-06-10 17:28:00,88.2,31.1,-100.00,WSW,249,18.0,36.0,13,0.00,,,0.00,meteohub,2013-06-11 00:28:00,
2013-06-10 17:33:00,88.3,33.1,-100.00,WSW,246,24.0,34.0,14,0.00,,,0.00,meteohub,2013-06-11 00:33:00,
2013-06-10 17:38:00,88.2,32.9,-100.00,WSW,252,25.0,33.0,14,0.00,,,0.00,meteohub,2013-06-11 00:38:00,
2013-06-10 17:43:00,88.2,32.9,-100.00,WSW,240,11.0,32.0,14,0.00,,,0.00,meteohub,2013-06-11 00:43:00,
2013-06-10 17:48:00,88.0,32.9,-100.00,WSW,252,17.0,31.0,14,0.00,,,0.00,meteohub,2013-06-11 00:48:00,
2013-06-10 17:53:00,88.0,34.5,-100.00,WSW,240,21.0,33.0,15,0.00,,,0.00,meteohub,2013-06-11 00:53:00,
2013-06-10 17:58:00,88.0,34.5,-100.00,WSW,254,12.0,33.0,15,0.00,,,0.00,meteohub,2013-06-11 00:58:00,
2013-06-10 18:03:00,87.6,36.0,-100.00,SW,229,12.0,31.0,16,0.00,,,0.00,meteohub,2013-06-11 01:03:00,
2013-06-10 18:08:00,87.4,35.8,-100.00,WSW,239,22.0,31.0,16,0.00,,,0.00,meteohub,2013-06-11 01:08:00,
2013-06-10 18:13:00,87.1,37.0,-100.00,SW,229,10.0,31.0,17,0.00,,,0.00,meteohub,2013-06-11 01:13:00,
2013-06-10 18:18:00,86.5,37.9,-100.00,WSW,240,11.0,31.0,18,0.00,,,0.00,meteohub,2013-06-11 01:18:00,
2013-06-10 18:23:00,86.4,39.2,-100.00,WSW,246,12.0,34.0,19,0.00,,,0.00,meteohub,2013-06-11 01:23:00,
2013-06-10 18:28:00,86.2,39.0,-100.00,SW,221,19.0,34.0,19,0.00,,,0.00,meteohub,2013-06-11 01:28:00,
2013-06-10 18:33:00,86.0,39.0,-100.00,West,261,13.0,33.0,19,0.00,,,0.00,meteohub,2013-06-11 01:33:00,
2013-06-10 18:38:00,85.6,38.7,-100.00,WSW,240,22.0,31.0,19,0.00,,,0.00,meteohub,2013-06-11 01:38:00,
2013-06-10 18:43:00,85.8,36.0,-100.00,West,270,18.0,34.0,17,0.00,,,0.00,meteohub,2013-06-11 01:43:00,
2013-06-10 18:48:00,86.2,37.8,-100.00,WSW,253,12.0,34.0,18,0.00,,,0.00,meteohub,2013-06-11 01:48:00,
2013-06-10 18:53:00,85.6,38.7,-100.00,WNW,294,17.0,34.0,19,0.00,,,0.00,meteohub,2013-06-11 01:53:00,
2013-06-10 18:58:00,84.9,38.1,-100.00,SSW,207,9.0,30.0,19,0.00,,,0.00,meteohub,2013-06-11 01:58:00,
2013-06-10 19:03:00,84.6,39.0,-100.00,SW,231,24.0,32.0,20,0.00,,,0.00,meteohub,2013-06-11 02:03:00,
2013-06-10 19:08:00,83.8,39.7,-100.00,WSW,250,28.0,32.0,21,0.00,,,0.00,meteohub,2013-06-11 02:08:00,
2013-06-10 19:13:00,83.7,39.6,-100.00,SW,221,21.0,42.0,21,0.00,,,0.00,meteohub,2013-06-11 02:13:00,
2013-06-10 19:18:00,83.1,39.2,-100.00,WSW,246,23.0,42.0,21,0.00,,,0.00,meteohub,2013-06-11 02:18:00,
2013-06-10 19:23:00,82.8,38.8,-100.00,SW,233,29.0,42.0,21,0.00,,,0.00,meteohub,2013-06-11 02:23:00,
2013-06-10 19:28:00,82.4,39.7,-100.00,SW,231,19.0,40.0,22,0.00,,,0.00,meteohub,2013-06-11 02:28:00,
2013-06-10 19:33:00,82.0,39.4,-100.00,WSW,252,24.0,36.0,22,0.00,,,0.00,meteohub,2013-06-11 02:33:00,
2013-06-10 19:38:00,81.7,40.3,-100.00,SSW,211,19.0,36.0,23,0.00,,,0.00,meteohub,2013-06-11 02:38:00,
2013-06-10 19:43:00,81.1,39.7,-100.00,SW,223,20.0,33.0,23,0.00,,,0.00,meteohub,2013-06-11 02:43:00,
2013-06-10 19:48:00,80.8,39.6,-100.00,SW,221,17.0,36.0,23,0.00,,,0.00,meteohub,2013-06-11 02:48:00,
2013-06-10 19:53:00,80.4,40.3,-100.00,West,261,19.0,36.0,24,0.00,,,0.00,meteohub,2013-06-11 02:53:00,
2013-06-10 19:58:00,80.2,40.1,-100.00,West,261,15.0,34.0,24,0.00,,,0.00,meteohub,2013-06-11 02:58:00,
2013-06-10 20:03:00,80.1,40.1,-100.00,SW,234,22.0,34.0,24,0.00,,,0.00,meteohub,2013-06-11 03:03:00,
2013-06-10 20:08:00,79.9,39.9,-100.00,SW,230,18.0,32.0,24,0.00,,,0.00,meteohub,2013-06-11 03:08:00,
2013-06-10 20:13:00,79.5,40.6,-100.00,WSW,237,27.0,30.0,25,0.00,,,0.00,meteohub,2013-06-11 03:13:00,
2013-06-10 20:18:00,79.2,40.3,-100.00,SSW,212,18.0,32.0,25,0.00,,,0.00,meteohub,2013-06-11 03:18:00,
2013-06-10 20:23:00,79.0,40.1,-100.00,SW,231,15.0,32.0,25,0.00,,,0.00,meteohub,2013-06-11 03:23:00,
2013-06-10 20:28:00,78.8,39.9,-100.00,SW,222,20.0,32.0,25,0.00,,,0.00,meteohub,2013-06-11 03:28:00,
2013-06-10 20:33:00,78.4,39.7,-100.00,WSW,241,24.0,31.0,25,0.00,,,0.00,meteohub,2013-06-11 03:33:00,
2013-06-10 20:38:00,78.4,39.7,-100.00,WSW,252,15.0,31.0,25,0.00,,,0.00,meteohub,2013-06-11 03:38:00,
2013-06-10 20:43:00,78.4,39.7,-100.00,SW,231,14.0,34.0,25,0.00,,,0.00,meteohub,2013-06-11 03:43:00,
2013-06-10 20:48:00,78.3,39.6,-100.00,WSW,241,17.0,34.0,25,0.00,,,0.00,meteohub,2013-06-11 03:48:00,
2013-06-10 20:53:00,78.3,40.6,-100.00,West,265,12.0,37.0,26,0.00,,,0.00,meteohub,2013-06-11 03:53:00,
2013-06-10 20:58:00,78.1,40.5,-100.00,WSW,240,20.0,37.0,26,0.00,,,0.00,meteohub,2013-06-11 03:58:00,
2013-06-10 21:01:00,77.9,40.3,-100.00,SW,225,26.0,37.0,26,0.00,,,0.00,meteohub,2013-06-11 04:01:00,
2013-06-10 21:02:00,77.9,40.3,-100.00,WSW,237,9.0,37.0,26,0.00,,,0.00,meteohub,2013-06-11 04:02:00,
2013-06-10 21:07:00,77.7,40.1,-100.00,SW,216,16.0,36.0,26,0.00,,,0.00,meteohub,2013-06-11 04:07:00,
2013-06-10 21:12:00,77.7,41.0,-100.00,WSW,257,29.0,33.0,27,0.00,,,0.00,meteohub,2013-06-11 04:12:00,
2013-06-10 21:17:00,77.7,40.1,-100.00,WSW,238,18.0,36.0,26,0.00,,,0.00,meteohub,2013-06-11 04:17:00,
2013-06-10 21:22:00,77.4,40.8,-100.00,West,271,21.0,36.0,27,0.00,,,0.00,meteohub,2013-06-11 04:22:00,
2013-06-10 21:27:00,77.4,40.8,-100.00,WSW,242,16.0,36.0,27,0.00,,,0.00,meteohub,2013-06-11 04:27:00,
2013-06-10 21:32:00,77.2,41.5,-100.00,WSW,250,21.0,32.0,28,0.00,,,0.00,meteohub,2013-06-11 04:32:00,
2013-06-10 21:37:00,77.2,41.5,-100.00,West,264,19.0,32.0,28,0.00,,,0.00,meteohub,2013-06-11 04:37:00,
2013-06-10 21:42:00,77.2,41.5,-100.00,WSW,249,25.0,32.0,28,0.00,,,0.00,meteohub,2013-06-11 04:42:00,
2013-06-10 21:47:00,76.8,41.2,-100.00,WSW,254,19.0,33.0,28,0.00,,,0.00,meteohub,2013-06-11 04:47:00,
2013-06-10 21:52:00,76.8,41.2,-100.00,WSW,245,30.0,33.0,28,0.00,,,0.00,meteohub,2013-06-11 04:52:00,
2013-06-10 21:57:00,77.0,41.4,-100.00,WSW,248,19.0,38.0,28,0.00,,,0.00,meteohub,2013-06-11 04:57:00,
2013-06-10 22:02:00,76.8,41.2,-100.00,WSW,249,26.0,38.0,28,0.00,,,0.00,meteohub,2013-06-11 05:02:00,
2013-06-10 22:07:00,76.8,41.2,-100.00,WSW,238,18.0,38.0,28,0.00,,,0.00,meteohub,2013-06-11 05:07:00,
2013-06-10 22:12:00,76.8,41.2,-100.00,West,261,19.0,32.0,28,0.00,,,0.00,meteohub,2013-06-11 05:12:00,
2013-06-10 22:17:00,76.6,41.2,-100.00,WSW,246,13.0,32.0,28,0.00,,,0.00,meteohub,2013-06-11 05:17:00,
2013-06-10 22:22:00,76.8,40.3,-100.00,West,276,9.0,31.0,27,0.00,,,0.00,meteohub,2013-06-11 05:22:00,
2013-06-10 22:27:00,77.0,40.5,-100.00,WSW,237,8.0,24.0,27,0.00,,,0.00,meteohub,2013-06-11 05:27:00,
2013-06-10 22:32:00,76.6,41.2,-100.00,West,259,9.0,23.0,28,0.00,,,0.00,meteohub,2013-06-11 05:32:00,
2013-06-10 22:37:00,76.6,40.1,-100.00,SW,233,7.0,19.0,27,0.00,,,0.00,meteohub,2013-06-11 05:37:00,
2013-06-10 22:42:00,76.6,40.1,-100.00,SW,219,6.0,15.0,27,0.00,,,0.00,meteohub,2013-06-11 05:42:00,
2013-06-10 22:47:00,76.6,39.2,-100.00,SSW,213,6.0,17.0,26,0.00,,,0.00,meteohub,2013-06-11 05:47:00,
2013-06-10 22:52:00,77.2,38.7,-100.00,West,264,6.0,17.0,25,0.00,,,0.00,meteohub,2013-06-11 05:52:00,
2013-06-10 22:57:00,78.4,37.6,-100.00,WSW,257,13.0,15.0,23,0.00,,,0.00,meteohub,2013-06-11 05:57:00,
2013-06-10 23:02:00,79.9,36.5,-100.00,West,271,9.0,19.0,21,0.00,,,0.00,meteohub,2013-06-11 06:02:00,
2013-06-10 23:07:00,80.2,36.7,-100.00,WSW,250,16.0,19.0,21,0.00,,,0.00,meteohub,2013-06-11 06:07:00,
2013-06-10 23:12:00,78.6,37.8,-100.00,WSW,253,11.0,27.0,23,0.00,,,0.00,meteohub,2013-06-11 06:12:00,
2013-06-10 23:17:00,77.7,38.1,-100.00,WSW,246,6.0,27.0,24,0.00,,,0.00,meteohub,2013-06-11 06:17:00,
2013-06-10 23:22:00,77.2,38.7,-100.00,SW,236,17.0,26.0,25,0.00,,,0.00,meteohub,2013-06-11 06:22:00,
2013-06-10 23:27:00,77.0,37.4,-100.00,West,265,7.0,21.0,24,0.00,,,0.00,meteohub,2013-06-11 06:27:00,
2013-06-10 23:32:00,77.5,37.9,-100.00,ENE,61,3.0,18.0,24,0.00,,,0.00,meteohub,2013-06-11 06:32:00,
2013-06-10 23:37:00,77.7,37.0,-100.00,East,86,0.0,17.0,23,0.00,,,0.00,meteohub,2013-06-11 06:37:00,
2013-06-10 23:42:00,77.7,37.0,-100.00,WSW,256,2.0,16.0,23,0.00,,,0.00,meteohub,2013-06-11 06:42:00,
2013-06-10 23:47:00,77.4,36.7,-100.00,SW,234,7.0,10.0,23,0.00,,,0.00,meteohub,2013-06-11 06:47:00,
2013-06-10 23:52:00,77.4,36.7,-100.00,SW,226,7.0,13.0,23,0.00,,,0.00,meteohub,2013-06-11 06:52:00,
2013-06-10 23:57:00,77.5,36.9,-100.00,WSW,252,11.0,17.0,23,0.00,,,0.00,meteohub,2013-06-11 06:57:00,